Home   Weather   Cairo   Past weeks

Flag for Egypt Past Weather in Cairo, Egypt — Yesterday and Last 2 Weeks

Now
79 °F

Sunny.


Feels Like: 79 °F
Forecast: 64 / 90 °F
Wind: 5 mph from North

Location: Cairo Airport

Current Time: May 24, 2017 at 12:06:42 pm

Latest Report: May 24, 2017 at 11:30 am


Visibility: 10 mi

Pressure: 30.04 "Hg

Humidity: 34%

Dew Point: 48 °F

Location of CairoLocation

Past Weather in Cairo — Graph

°F

Cairo Temperature Yesterday

Maximum temperature yesterday: 84 °F (at 2:30 pm)
Minimum temperature yesterday: 68 °F (at 4:00 am)
Average temperature yesterday: 76 °F

High & Low Weather Summary for the Past Weeks

 TemperatureHumidityPressure
High106 °F (May 10, 12:00 pm)88% (May 11, 5:30 am)32.52 "Hg (May 11, 5:30 am)
Low66 °F (May 12, 3:00 am)8% (May 10, 11:30 am)29.68 "Hg (May 18, 3:30 pm)
Average81 °F45%29.91 "Hg
* Reported May 9 11:00 am — May 24 11:00 am, Cairo. Weather by CustomWeather, © 2017

Note: Actual official high and low records may vary slightly from our data, if they occured in-between our weather recording intervals... More about our weather records

Advertising

Cairo Weather History for the Previous 24 Hours

Scroll right to see more
 ConditionsComfort  
Time TempWeatherWind HumidityBarometerVisibility
11:00 am
Wed, May 24
79 °FSunny.2 mph34%30.04 "Hg10 mi
10:30 am79 °FSunny.3 mph37%30.04 "Hg10 mi
10:00 am77 °FSunny.3 mph47%30.04 "Hg10 mi
9:30 am75 °FSunny.3 mph50%30.04 "Hg10 mi
9:00 am73 °FSunny.3 mph61%30.04 "Hg10 mi
8:30 am72 °FSunny.7 mph69%30.04 "Hg10 mi
8:00 am70 °FSunny.7 mph73%30.04 "Hg10 mi
7:30 am70 °FClear.5 mph73%30.04 "Hg4 mi
7:00 am68 °FClear.5 mph78%30.04 "Hg4 mi
6:00 am68 °FClear.3 mph78%30.04 "Hg4 mi
5:30 am68 °FFog.2 mph78%30.01 "Hg2 mi
5:00 am68 °FClear.2 mph78%30.01 "Hg4 mi
4:30 am68 °FClear.6 mph78%30.01 "Hg4 mi
4:00 am68 °FClear.6 mph78%30.01 "Hg10 mi
3:30 am68 °FClear.7 mph78%30.01 "Hg10 mi
3:00 am68 °FClear.7 mph78%30.01 "Hg10 mi
2:30 am70 °FClear.6 mph73%30.04 "Hg10 mi
2:00 am70 °FClear.6 mph73%30.04 "Hg10 mi
1:30 am70 °FClear.5 mph73%30.04 "Hg10 mi
1:00 am70 °FClear.10 mph73%30.04 "Hg10 mi
12:30 am70 °FClear.10 mph73%30.04 "Hg10 mi
12:00 am72 °FClear.10 mph69%30.04 "Hg10 mi
11:30 pm
Tue, May 23
72 °FClear.10 mph69%30.04 "Hg10 mi
11:00 pm73 °FClear.10 mph61%30.07 "Hg10 mi
10:30 pm73 °FClear.12 mph61%30.07 "Hg10 mi
10:00 pm73 °FClear.12 mph61%30.07 "Hg10 mi
9:30 pm75 °FClear.10 mph57%30.04 "Hg10 mi
9:00 pm75 °FPassing clouds.14 mph54%30.04 "HgN/A
8:30 pm77 °FPassing clouds.14 mph51%30.04 "HgN/A
8:00 pm77 °FPassing clouds.15 mph51%30.01 "HgN/A
7:30 pm79 °FPassing clouds.14 mph42%30.01 "HgN/A
7:00 pm81 °FPassing clouds.12 mph37%29.98 "HgN/A
6:30 pm81 °FScattered clouds.12 mph37%29.98 "HgN/A
6:00 pm82 °FScattered clouds.12 mph35%29.95 "HgN/A
5:30 pm84 °FScattered clouds.14 mph33%29.95 "Hg4 mi
5:00 pm82 °FScattered clouds.16 mph35%29.95 "Hg4 mi
4:30 pm82 °FScattered clouds.13 mph32%29.95 "HgN/A
4:00 pm84 °FPassing clouds.7 mph33%29.95 "HgN/A
3:30 pm84 °FPassing clouds.10 mph31%29.95 "HgN/A
3:00 pm82 °FPassing clouds.7 mph32%29.95 "HgN/A
2:30 pm84 °FPassing clouds.9 mph31%29.95 "HgN/A
2:00 pm82 °FPassing clouds.10 mph32%29.95 "HgN/A
1:30 pm82 °FScattered clouds.12 mph35%29.95 "HgN/A
1:00 pm82 °FScattered clouds.12 mph32%29.98 "HgN/A
12:30 pm81 °FScattered clouds.9 mph37%29.98 "HgN/A
12:00 pm81 °FScattered clouds.8 mph37%29.98 "HgN/A
Weather by CustomWeather, © 2017

See weather overviewHow to use our weather pages